When you browse on this site, cookies collect data to enhance your experience and personalize the content and advertising you see.
Visit our Privacy Policy to learn more. By continuing to use the site, you agree to this use of cookies and data.
  • In Hungary
  • List of Countries
  • For 7 days
  • Water Temperature
  • Satellite Maps
  • Weather Map
  • News
  • Weather Widgets
  • user-avatar
    Login

    Hourly Weather Kitee

    Today, 17 February, Sunday

    Time Temperature Precipitation Wind Pressure Humidity
    00:00 -2°C° 0 mm 6 mps 736 mmHg 80%
    01:00 -3°C° 0 mm 6 mps 736 mmHg 77%
    02:00 -3°C° 0 mm 6 mps 735 mmHg 75%
    03:00 -3°C° 0 mm 6 mps 735 mmHg 73%
    04:00 -3°C° 0 mm 7 mps 735 mmHg 72%
    05:00 -3°C° 0 mm 7 mps 735 mmHg 70%
    06:00 -4°C° 0 mm 8 mps 736 mmHg 72%
    07:00 -4°C° 0 mm 8 mps 736 mmHg 73%
    08:00 -2°C° 0 mm 8 mps 737 mmHg 75%
    09:00 -4°C° 0 mm 8 mps 738 mmHg 74%
    10:00 -4°C° 0 mm 8 mps 739 mmHg 72%
    11:00 -5°C° 0 mm 8 mps 741 mmHg 71%
    12:00 -5°C° 0 mm 8 mps 742 mmHg 71%
    13:00 -5°C° 0 mm 8 mps 743 mmHg 71%
    14:00 -6°C° 0 mm 8 mps 745 mmHg 71%
    15:00 -6°C° 0 mm 7 mps 746 mmHg 72%
    16:00 -6°C° 0 mm 6 mps 747 mmHg 73%
    17:00 -8°C° 0 mm 6 mps 749 mmHg 74%
    18:00 -7°C° 0 mm 5 mps 750 mmHg 76%
    19:00 -8°C° 0 mm 5 mps 751 mmHg 78%
    20:00 -9°C° 0 mm 4 mps 752 mmHg 80%
    21:00 -10°C° 0 mm 4 mps 753 mmHg 81%
    22:00 -10°C° 0 mm 4 mps 754 mmHg 83%
    23:00 -10°C° 0 mm 3 mps 755 mmHg 85%

    Tomorrow, 18 February, Monday

    Time Temperature Precipitation Wind Pressure Humidity
    00:00 -12°C° 0 mm 3 mps 755 mmHg 87%
    01:00 -13°C° 0 mm 3 mps 756 mmHg 89%
    02:00 -12°C° 0 mm 2 mps 756 mmHg 91%
    03:00 -13°C° 0 mm 2 mps 757 mmHg 91%
    04:00 -14°C° 0 mm 2 mps 757 mmHg 91%
    05:00 -13°C° 0 mm 1 mps 757 mmHg 92%
    06:00 -13°C° 0 mm 1 mps 757 mmHg 89%
    07:00 -13°C° 0 mm 1 mps 757 mmHg 87%
    08:00 -13°C° 0 mm 0 mps 757 mmHg 85%
    09:00 -12°C° 0 mm 1 mps 757 mmHg 82%
    10:00 -12°C° 0 mm 2 mps 757 mmHg 79%
    11:00 -10°C° 0 mm 2 mps 757 mmHg 76%
    12:00 -10°C° 0 mm 3 mps 756 mmHg 76%
    13:00 -10°C° 0 mm 4 mps 755 mmHg 76%
    14:00 -10°C° 0 mm 4 mps 755 mmHg 76%
    15:00 -10°C° 0 mm 5 mps 754 mmHg 76%
    16:00 -10°C° 0 mm 5 mps 753 mmHg 76%
    17:00 -10°C° 0 mm 5 mps 752 mmHg 76%
    18:00 -8°C° 0.1 mm 5 mps 751 mmHg 79%
    19:00 -7°C° 0.1 mm 5 mps 749 mmHg 82%
    20:00 -7°C° 0.1 mm 5 mps 748 mmHg 86%
    21:00 -5°C° 0.2 mm 5 mps 747 mmHg 86%
    22:00 -4°C° 0.2 mm 5 mps 746 mmHg 87%
    23:00 -3°C° 0.2 mm 6 mps 745 mmHg 87%

    Day after tomorrow, 19 February, Tuesday

    Time Temperature Precipitation Wind Pressure Humidity
    00:00 -2°C° 0.2 mm 6 mps 744 mmHg 88%
    01:00 -2°C° 0.2 mm 6 mps 743 mmHg 90%
    02:00 -1°C° 0.2 mm 6 mps 743 mmHg 91%
    03:00 -1°C° 0.4 mm 6 mps 742 mmHg 92%
    04:00 -1°C° 0.4 mm 6 mps 742 mmHg 92%
    05:00 0°C° 0.4 mm 5 mps 741 mmHg 93%
    06:00 0°C° 0.1 mm 5 mps 741 mmHg 93%
    07:00 0°C° 0.1 mm 5 mps 741 mmHg 93%
    08:00 0°C° 0.1 mm 4 mps 740 mmHg 94%
    09:00 0°C° 0 mm 4 mps 740 mmHg 94%
    10:00 0°C° 0 mm 4 mps 740 mmHg 94%
    11:00 0°C° 0 mm 4 mps 740 mmHg 95%
    12:00 0°C° 0.1 mm 4 mps 740 mmHg 95%
    13:00 0°C° 0.1 mm 4 mps 739 mmHg 94%
    14:00 0°C° 0.1 mm 4 mps 739 mmHg 94%
    15:00 0°C° 0.5 mm 4 mps 738 mmHg 94%
    16:00 0°C° 0.5 mm 4 mps 738 mmHg 95%
    17:00 0°C° 0.5 mm 4 mps 737 mmHg 95%
    18:00 0°C° 0.2 mm 4 mps 736 mmHg 95%
    19:00 0°C° 0.2 mm 4 mps 736 mmHg 95%
    20:00 -1°C° 0.2 mm 4 mps 735 mmHg 95%
    21:00 -1°C° 0.2 mm 4 mps 735 mmHg 94%
    22:00 -1°C° 0.2 mm 4 mps 735 mmHg 93%
    23:00 -1°C° 0.2 mm 4 mps 734 mmHg 93%

    20 February, Wednesday

    Time Temperature Precipitation Wind Pressure Humidity
    00:00 -1°C° 0 mm 4 mps 734 mmHg 92%
    01:00 -1°C° 0 mm 4 mps 734 mmHg 92%
    02:00 -1°C° 0 mm 4 mps 734 mmHg 92%
    03:00 0°C° 0 mm 3 mps 733 mmHg 92%
    04:00 0°C° 0 mm 3 mps 733 mmHg 92%
    05:00 0°C° 0 mm 3 mps 732 mmHg 93%
    06:00 0°C° 0.1 mm 3 mps 732 mmHg 93%
    07:00 0°C° 0.1 mm 3 mps 732 mmHg 94%
    08:00 0°C° 0.1 mm 3 mps 732 mmHg 94%
    09:00 0°C° 0.4 mm 3 mps 732 mmHg 94%
    10:00 0°C° 0.4 mm 3 mps 732 mmHg 94%
    11:00 0°C° 0.4 mm 3 mps 731 mmHg 94%
    12:00 0°C° 0.1 mm 3 mps 732 mmHg 93%
    13:00 0°C° 0.1 mm 3 mps 732 mmHg 92%
    14:00 0°C° 0.1 mm 3 mps 733 mmHg 91%
    15:00 -2°C° 0.5 mm 5 mps 734 mmHg 89%
    16:00 -5°C° 0.5 mm 6 mps 735 mmHg 88%
    17:00 -7°C° 0.5 mm 8 mps 736 mmHg 86%
    18:00 -8°C° 0.2 mm 8 mps 738 mmHg 83%
    19:00 -10°C° 0.2 mm 8 mps 739 mmHg 81%
    20:00 -12°C° 0.2 mm 8 mps 741 mmHg 79%
    21:00 -12°C° 0 mm 8 mps 742 mmHg 77%
    22:00 -13°C° 0 mm 8 mps 744 mmHg 76%
    23:00 -13°C° 0 mm 8 mps 745 mmHg 74%

    21 February, Thursday

    Time Temperature Precipitation Wind Pressure Humidity
    00:00 -13°C° 0 mm 7 mps 747 mmHg 75%
    01:00 -14°C° 0 mm 7 mps 748 mmHg 75%
    02:00 -14°C° 0 mm 6 mps 749 mmHg 76%
    03:00 -14°C° 0 mm 6 mps 750 mmHg 77%
    04:00 -14°C° 0 mm 5 mps 751 mmHg 78%
    05:00 -15°C° 0 mm 5 mps 752 mmHg 79%
    06:00 -15°C° 0 mm 4 mps 753 mmHg 82%
    07:00 -16°C° 0 mm 4 mps 754 mmHg 84%
    08:00 -15°C° 0 mm 3 mps 754 mmHg 86%
    09:00 -14°C° 0 mm 3 mps 755 mmHg 86%
    10:00 -14°C° 0 mm 3 mps 755 mmHg 85%
    11:00 -12°C° 0 mm 2 mps 756 mmHg 84%
    12:00 -12°C° 0 mm 2 mps 756 mmHg 83%
    13:00 -10°C° 0 mm 2 mps 756 mmHg 82%
    14:00 -9°C° 0 mm 2 mps 757 mmHg 82%
    15:00 -9°C° 0 mm 1 mps 757 mmHg 84%
    16:00 -10°C° 0 mm 1 mps 757 mmHg 87%
    17:00 -11°C° 0 mm 1 mps 758 mmHg 89%
    18:00 -11°C° 0 mm 1 mps 758 mmHg 89%
    19:00 -11°C° 0 mm 1 mps 758 mmHg 88%
    20:00 -12°C° 0 mm 0 mps 759 mmHg 88%
    21:00 -12°C° 0 mm 0 mps 759 mmHg 86%
    22:00 -12°C° 0 mm 0 mps 759 mmHg 85%
    23:00 -12°C° 0 mm 0 mps 760 mmHg 84%

    22 February, Friday

    Time Temperature Precipitation Wind Pressure Humidity
    00:00 -12°C° 0 mm 0 mps 760 mmHg 83%
    01:00 -12°C° 0 mm 0 mps 761 mmHg 82%
    02:00 -12°C° 0 mm 0 mps 761 mmHg 81%
    03:00 -12°C° 0 mm 0 mps 762 mmHg 80%
    04:00 -12°C° 0 mm 0 mps 762 mmHg 80%
    05:00 -12°C° 0 mm 0 mps 763 mmHg 80%
    06:00 -12°C° 0 mm 0 mps 763 mmHg 80%
    07:00 -11°C° 0 mm 1 mps 764 mmHg 80%
    08:00 -11°C° 0 mm 1 mps 765 mmHg 81%
    09:00 -10°C° 0 mm 1 mps 765 mmHg 80%
    10:00 -9°C° 0 mm 1 mps 766 mmHg 79%
    11:00 -7°C° 0 mm 1 mps 766 mmHg 78%
    12:00 -7°C° 0 mm 1 mps 767 mmHg 80%
    13:00 -7°C° 0 mm 2 mps 767 mmHg 82%
    14:00 -6°C° 0 mm 2 mps 767 mmHg 85%
    15:00 -6°C° 0 mm 2 mps 767 mmHg 87%
    16:00 -6°C° 0 mm 1 mps 768 mmHg 89%
    17:00 -6°C° 0 mm 1 mps 768 mmHg 91%
    18:00 -7°C° 0 mm 1 mps 768 mmHg 92%
    19:00 -7°C° 0 mm 0 mps 768 mmHg 92%
    20:00 -8°C° 0 mm 0 mps 768 mmHg 93%
    21:00 -8°C° 0 mm 0 mps 768 mmHg 93%
    22:00 -8°C° 0 mm 1 mps 768 mmHg 94%
    23:00 -9°C° 0 mm 1 mps 768 mmHg 94%
    Show more